Location: Shepherdstown, WV
(39.4326°N, 77.8042°W)
Time: 20:30:07
(UTC-04:00)

Vanguard 1 Rocket - Pass Details

Date: 09 August 2021
Orbit: 650 x 4226 km, 34.3° (Epoch: 19 September)

Event Time Altitude Azimuth Distance (km) Brightness Sun altitude
Rises 12:16:34 0° 270° (W) 8,211 12.1 62.8°
Reaches altitude 10° 12:22:47 10° 269° (W) 6,858 11.8 63.5°
Maximum altitude 12:43:05 69° 192° (SSW) 2,515 11.8 65.1°
Drops below altitude 10° 12:53:18 10° 111° (ESE) 3,731 10.9 65.7°
Sets 12:55:39 0° 109° (ESE) 4,403 11.1 65.8°
